Probability
23 26 39 71 84 39 3 0 3 3 3 10 10 10 10 13 10 3 23 19 39 39 35 52 71 77 74 71 61 61 65 65 74 58 61 58 61 58 55 48 52 61 58 58 55 55 52 55 52
32 45 61 81 52 3 0 0 0 0 6 6 10 6 3 0 3 6 29 26 29 26 32 35 71 77 77 68 58 61 55 58 61 61 61 61 65 58 58 48 48 45 55 55 52 48 42 48 48
45 58 61 68 23 0 0 0 0 0 3 3 3 6 6 3 13 16 19 19 26 35 35 45 71 74 77 71 61 55 52 52 52 55 58 58 58 55 58 61 55 45 58 52 55 52 45 45 45
58 68 61 32 3 0 0 0 3 0 0 0 0 3 10 6 10 10 10 13 19 29 26 45 71 68 61 58 52 52 52 52 52 48 48 48 48 52 52 55 55 48 55 48 52 52 42 39 35
58 61 35 3 0 0 0 0 0 3 0 0 6 13 16 6 6 6 10 19 23 29 32 35 65 58 52 55 48 42 52 48 48 55 55 45 42 48 48 52 48 48 52 48 48 48 42 39 39
58 48 26 0 0 0 0 0 0 0 0 3 10 10 13 13 10 10 16 23 23 32 35 35 55 48 55 55 55 45 48 52 45 42 42 45 45 48 45 42 45 45 39 39 45 45 42 45 45
39 32 0 0 0 0 0 0 0 0 0 3 6 16 13 13 6 6 6 19 26 32 39 39 42 48 55 58 45 39 42 42 39 32 39 45 48 42 39 35 35 35 29 35 39 39 39 35 35
16 13 0 0 0 0 0 0 0 0 0 0 3 13 13 10 6 10 16 19 23 26 29 42 42 42 42 45 45 39 42 35 35 35 39 42 45 42 42 35 35 26 26 29 32 32 35 39 42
10 10 0 0 0 0 3 0 0 0 0 3 0 10 10 10 6 10 16 26 26 19 23 26 29 35 35 39 48 45 45 45 42 45 42 39 42 35 42 32 45 32 32 32 32 42 45 42 52
3 0 0 0 0 0 0 3 0 0 3 0 3 10 13 16 19 19 19 23 26 19 23 23 23 39 35 35 45 45 45 52 55 58 52 48 55 52 42 42 45 45 39 35 42 48 52 48 35
0 0 0 0 0 0 0 3 0 0 0 3 13 13 13 19 19 23 19 19 23 23 23 19 29 39 42 42 42 42 52 58 45 55 61 61 55 48 45 39 39 45 42 45 48 39 29 32 48
0 0 0 0 0 0 0 0 3 6 6 6 10 19 13 16 19 19 19 19 23 29 35 29 35 58 61 58 45 52 48 58 48 65 68 61 58 58 48 48 52 48 39 45 42 42 39 35 39
3 0 0 0 0 0 0 0 0 6 6 10 10 13 13 19 16 16 19 23 29 48 42 45 58 68 61 81 68 55 55 48 45 61 61 55 55 55 52 52 52 48 48 48 45 45 45 45 32
0 0 0 0 0 0 0 3 3 10 6 13 13 13 16 16 16 19 26 32 45 48 52 52 55 68 74 71 71 65 52 65 52 55 48 55 52 52 48 58 55 52 52 48 55 45 42 45 39
0 0 0 0 0 0 3 3 3 10 13 16 19 16 16 13 19 19 26 42 42 45 48 55 48 71 71 65 58 39 42 35 48 45 48 48 48 48 55 55 52 52 52 55 55 48 48 45 35
0 0 3 3 3 0 0 6 3 6 16 19 23 19 16 19 26 26 23 45 48 48 58 61 42 61 68 74 71 45 35 45 45 48 45 42 45 45 48 52 48 55 52 55 52 52 42 52 39
0 0 3 3 0 0 6 6 10 6 13 19 23 35 23 19 29 29 29 35 45 55 61 65 68 65 68 61 71 61 48 48 48 48 39 39 35 39 42 42 45 48 52 55 39 45 48 45 45
0 0 0 0 0 0 6 10 6 13 16 26 26 35 32 29 35 39 26 29 45 52 68 71 68 74 74 68 68 65 55 45 45 45 48 42 35 39 39 39 42 45 52 48 45 48 48 52 55
0 0 0 0 0 0 3 13 19 16 16 19 26 26 35 35 42 39 39 32 39 55 65 71 77 77 81 74 58 58 52 48 48 39 39 45 42 42 39 45 42 48 45 52 48 48 45 45 42
0 0 0 0 0 3 3 13 19 16 13 16 16 29 35 35 39 39 39 39 32 55 65 71 74 74 74 77 68 68 58 52 42 42 45 42 45 42 35 42 42 42 48 42 45 45 42 35 35
0 0 0 0 0 3 0 6 13 16 13 13 16 19 42 42 35 42 45 39 35 42 58 52 74 74 74 74 68 61 65 52 48 48 52 45 45 45 42 42 45 45 42 39 42 45 35 35 39
0 0 0 0 0 0 0 3 23 19 16 16 16 29 29 48 45 42 48 48 42 42 48 65 71 77 71 71 65 58 55 42 45 55 55 48 52 52 48 45 45 42 42 48 42 42 45 35 32
0 0 0 0 0 0 0 0 13 26 26 23 23 19 32 32 45 45 48 55 45 45 48 58 77 84 81 71 65 68 52 45 48 52 48 45 48 48 42 48 45 48 45 45 48 48 39 32 26
0 0 0 0 0 0 0 0 10 16 29 23 16 16 26 29 35 42 42 48 45 48 48 55 71 77 74 65 65 68 61 58 55 52 48 52 48 45 42 42 42 45 48 45 48 42 35 35 35
0 0 0 0 0 0 0 0 10 10 10 13 3 16 26 29 29 35 42 45 45 42 45 61 68 68 65 65 65 68 65 61 58 52 48 52 45 42 42 39 42 45 48 39 45 45 39 39 32
0 0 0 0 0 0 3 13 16 6 10 13 10 19 23 26 32 32 39 48 42 32 52 52 65 61 65 61 61 65 68 58 55 61 52 52 42 42 45 42 42 42 39 39 39 39 32 35 32
0 0 0 0 0 0 0 13 10 0 6 13 13 19 19 23 29 32 32 35 35 42 48 55 58 58 58 58 65 61 61 55 48 58 55 48 48 42 42 42 45 39 39 39 39 39 35 32 29
0 0 0 0 6 0 0 10 13 10 13 10 10 13 13 19 23 26 26 29 29 26 48 61 61 65 58 61 61 48 52 52 55 52 52 52 48 48 42 39 39 35 35 35 32 32 35 32 35
0 0 0 0 0 0 0 3 10 13 16 10 6 10 16 16 19 23 23 29 26 26 35 52 55 61 52 48 55 52 52 45 52 52 52 52 52 52 48 42 39 39 39 32 35 32 32 35 32
0 0 0 0 10 0 6 6 3 10 10 10 3 10 13 16 23 23 26 35 26 35 32 42 42 48 48 52 48 48 42 45 48 48 52 52 52 48 48 48 42 35 32 32 29 32 29 29 29
Height
5889 5889 5889 5889 5889 5889 5888 5888 5887 5887 5886 5885 5884 5883 5882 5883 5883 5885 5881 5879 5880 5879 5878 5878 5878 5878 5877 5877 5877 5877 5877 5877 5877 5877 5878 5878 5879 5879 5880 5880 5881 5881 5882 5882 5883 5883 5884 5885 5886
5892 5891 5890 5890 5891 5891 5891 5890 5889 5889 5888 5886 5886 5885 5884 5884 5884 5883 5882 5881 5881 5880 5880 5879 5879 5879 5878 5878 5878 5878 5877 5877 5878 5878 5878 5879 5879 5879 5880 5880 5881 5881 5881 5882 5883 5883 5884 5885 5885
5894 5892 5892 5893 5894 5893 5893 5892 5891 5890 5889 5889 5888 5888 5886 5886 5885 5884 5884 5883 5882 5882 5881 5880 5880 5879 5879 5879 5878 5878 5878 5878 5878 5878 5879 5879 5879 5879 5880 5880 5881 5881 5881 5882 5882 5883 5884 5884 5885
5896 5894 5894 5897 5896 5896 5895 5894 5893 5892 5891 5890 5890 5889 5887 5887 5886 5886 5885 5884 5883 5883 5882 5881 5881 5880 5880 5880 5879 5879 5879 5879 5879 5879 5879 5879 5879 5879 5880 5880 5880 5881 5881 5881 5882 5882 5883 5884 5884
5896 5895 5898 5899 5898 5898 5897 5896 5895 5894 5893 5892 5891 5890 5889 5888 5887 5887 5886 5886 5885 5884 5883 5882 5882 5881 5881 5880 5880 5880 5879 5879 5879 5879 5879 5879 5879 5879 5879 5879 5879 5880 5880 5881 5881 5882 5882 5883 5883
5897 5898 5902 5902 5901 5900 5899 5898 5897 5896 5895 5894 5893 5892 5890 5890 5889 5888 5888 5887 5886 5884 5883 5883 5883 5882 5882 5881 5881 5880 5880 5880 5879 5879 5879 5879 5879 5879 5878 5879 5879 5879 5880 5880 5880 5881 5881 5882 5882
5900 5902 5904 5904 5903 5902 5901 5899 5899 5898 5897 5896 5895 5893 5892 5891 5890 5890 5889 5888 5887 5885 5885 5884 5884 5883 5882 5882 5881 5881 5880 5880 5880 5879 5879 5878 5878 5878 5878 5878 5878 5879 5879 5879 5879 5880 5880 5880 5881
5903 5905 5906 5906 5905 5903 5903 5901 5900 5899 5898 5897 5896 5895 5893 5893 5892 5891 5890 5889 5888 5887 5886 5886 5885 5884 5883 5882 5882 5881 5880 5880 5880 5879 5878 5878 5878 5877 5877 5877 5877 5878 5878 5878 5878 5879 5879 5879 5879
5905 5908 5908 5908 5907 5905 5904 5903 5902 5901 5900 5899 5897 5896 5895 5894 5893 5892 5891 5890 5889 5888 5887 5886 5885 5884 5883 5883 5882 5882 5881 5880 5879 5878 5878 5878 5877 5877 5877 5876 5876 5876 5876 5877 5877 5878 5879 5879 5879
5909 5910 5910 5910 5908 5907 5905 5904 5903 5902 5901 5900 5899 5898 5896 5895 5894 5893 5893 5891 5889 5888 5888 5887 5886 5885 5884 5883 5882 5882 5881 5880 5878 5878 5877 5877 5876 5876 5876 5875 5875 5875 5875 5875 5876 5877 5877 5878 5878
5913 5913 5912 5911 5909 5908 5907 5906 5905 5904 5902 5901 5900 5899 5897 5896 5895 5894 5894 5892 5891 5890 5889 5888 5887 5886 5884 5883 5882 5881 5880 5879 5878 5877 5876 5876 5876 5876 5875 5875 5874 5874 5874 5874 5874 5875 5876 5876 5876
5915 5915 5914 5912 5911 5909 5908 5907 5906 5905 5903 5902 5901 5900 5898 5898 5897 5896 5895 5893 5892 5891 5890 5889 5887 5886 5885 5883 5882 5881 5880 5879 5878 5877 5876 5875 5875 5875 5874 5874 5874 5873 5873 5873 5874 5874 5874 5875 5875
5917 5916 5915 5914 5912 5910 5909 5908 5907 5906 5905 5903 5902 5901 5899 5898 5897 5896 5895 5894 5893 5891 5890 5889 5888 5886 5885 5883 5882 5881 5879 5878 5877 5876 5875 5875 5875 5874 5874 5873 5873 5873 5872 5872 5872 5872 5872 5873 5873
5918 5917 5916 5915 5913 5912 5910 5909 5908 5907 5905 5904 5903 5901 5900 5899 5898 5897 5896 5894 5893 5892 5891 5889 5888 5886 5885 5883 5881 5880 5879 5878 5877 5876 5875 5874 5874 5873 5873 5872 5872 5871 5871 5871 5871 5871 5871 5871 5871
5916 5914 5915 5915 5913 5913 5911 5910 5907 5907 5906 5905 5903 5902 5901 5899 5898 5897 5896 5894 5893 5892 5891 5889 5888 5886 5884 5883 5881 5880 5879 5877 5876 5875 5874 5874 5873 5872 5872 5871 5870 5870 5870 5869 5869 5869 5869 5869 5869
5915 5915 5915 5914 5913 5913 5914 5911 5909 5907 5907 5905 5904 5902 5901 5899 5898 5897 5895 5894 5892 5891 5890 5889 5887 5886 5884 5882 5881 5879 5878 5877 5875 5874 5873 5873 5871 5871 5870 5869 5869 5868 5868 5867 5867 5867 5866 5866 5867
5916 5916 5915 5915 5915 5915 5913 5911 5909 5908 5907 5906 5904 5903 5901 5900 5898 5897 5895 5893 5892 5891 5890 5889 5887 5885 5884 5882 5880 5879 5877 5876 5875 5873 5872 5871 5870 5869 5868 5868 5867 5866 5866 5865 5865 5865 5865 5864 5864
5919 5919 5918 5918 5917 5915 5914 5912 5910 5909 5908 5906 5905 5903 5901 5900 5898 5897 5895 5893 5892 5891 5889 5888 5886 5885 5883 5881 5880 5878 5876 5875 5874 5872 5871 5869 5868 5867 5866 5866 5865 5865 5864 5863 5863 5863 5862 5862 5862
5920 5920 5920 5919 5918 5916 5914 5912 5911 5909 5907 5906 5905 5903 5901 5900 5898 5896 5895 5893 5892 5890 5889 5887 5886 5884 5882 5881 5879 5877 5876 5874 5872 5871 5869 5868 5866 5865 5865 5864 5863 5863 5862 5861 5861 5860 5860 5859 5859
5920 5921 5920 5919 5917 5915 5913 5910 5910 5909 5907 5906 5904 5902 5900 5899 5898 5896 5894 5893 5891 5890 5888 5886 5885 5883 5881 5880 5878 5876 5874 5873 5871 5869 5867 5866 5865 5864 5863 5862 5861 5860 5860 5859 5858 5857 5857 5856 5856
5920 5920 5920 5919 5917 5915 5914 5909 5908 5907 5907 5906 5904 5902 5900 5898 5897 5895 5894 5892 5890 5889 5887 5886 5884 5882 5880 5879 5877 5875 5873 5871 5870 5868 5866 5865 5864 5862 5861 5860 5859 5858 5857 5856 5855 5854 5854 5853 5853
5919 5919 5918 5918 5917 5915 5913 5909 5907 5906 5905 5905 5904 5901 5900 5898 5896 5895 5893 5891 5889 5888 5886 5885 5883 5881 5879 5877 5876 5874 5872 5870 5868 5867 5865 5863 5862 5861 5859 5858 5857 5856 5855 5854 5853 5852 5851 5850 5849
5917 5917 5917 5916 5914 5914 5911 5909 5906 5906 5904 5904 5903 5901 5899 5897 5896 5894 5892 5890 5888 5887 5885 5884 5882 5880 5878 5876 5874 5873 5871 5869 5867 5865 5863 5862 5860 5859 5857 5855 5854 5853 5852 5851 5850 5849 5848 5846 5845
5915 5916 5915 5914 5913 5912 5911 5909 5906 5903 5903 5903 5901 5900 5898 5897 5894 5892 5891 5889 5887 5885 5884 5882 5880 5879 5877 5875 5873 5871 5869 5867 5865 5863 5862 5860 5858 5856 5855 5853 5852 5850 5849 5848 5847 5846 5844 5843 5842
5914 5915 5914 5913 5911 5911 5909 5908 5905 5901 5902 5902 5900 5898 5897 5895 5893 5891 5889 5888 5886 5884 5882 5881 5879 5877 5875 5873 5871 5869 5868 5866 5864 5862 5860 5858 5856 5854 5852 5851 5849 5848 5846 5845 5844 5842 5841 5839 5838
5912 5913 5913 5912 5912 5911 5908 5905 5903 5901 5901 5900 5899 5897 5895 5893 5891 5890 5888 5886 5884 5882 5881 5879 5877 5875 5873 5871 5869 5867 5865 5863 5861 5859 5857 5855 5853 5851 5850 5848 5847 5845 5844 5842 5840 5839 5837 5836 5834
5909 5910 5911 5911 5910 5909 5906 5903 5902 5899 5899 5898 5897 5895 5892 5890 5889 5888 5886 5884 5882 5880 5879 5877 5875 5873 5871 5868 5866 5864 5862 5860 5859 5857 5854 5852 5851 5849 5847 5845 5844 5842 5840 5839 5837 5835 5833 5832 5830
5907 5907 5907 5907 5906 5905 5905 5901 5900 5898 5898 5896 5894 5892 5891 5889 5888 5886 5884 5882 5880 5878 5876 5874 5872 5870 5868 5865 5863 5861 5859 5857 5855 5853 5851 5849 5848 5846 5844 5842 5840 5838 5837 5835 5833 5831 5829 5828 5826
5905 5905 5905 5904 5904 5904 5903 5901 5898 5897 5895 5894 5892 5891 5888 5887 5885 5884 5882 5880 5878 5875 5874 5871 5869 5867 5864 5862 5860 5858 5856 5854 5852 5850 5848 5846 5844 5842 5840 5838 5836 5834 5832 5830 5829 5827 5825 5823 5822
5900 5901 5902 5903 5902 5901 5901 5900 5895 5893 5892 5891 5890 5889 5886 5885 5883 5881 5879 5877 5875 5873 5870 5868 5865 5864 5862 5860 5857 5855 5853 5851 5849 5847 5845 5842 5840 5838 5836 5834 5832 5830 5828 5826 5824 5822 5820 5818 5816
Wind_Speed
15 15 14 14 14 12 8 8 8 7 7 7 6 5 4 4 4 4 4 4 5 4 4 4 4 4 3 3 3 3 4 3 4 3 3 4 4 4 5 5 5 4 4 4 4 4 4 4 5
14 13 14 15 13 9 8 7 7 7 7 7 6 6 6 6 6 5 4 4 5 5 4 4 4 4 3 3 2 2 2 2 2 2 3 3 3 3 3 3 4 3 3 3 4 4 3 4 5
13 13 15 14 9 7 7 8 7 7 7 6 6 6 6 7 7 6 6 5 6 6 5 5 4 4 3 3 2 2 1 0 1 1 2 2 3 3 3 3 3 3 3 4 4 4 4 4 5
13 15 16 12 8 7 7 7 7 8 7 7 7 6 6 6 7 7 7 6 6 7 6 6 5 4 3 3 2 2 1 1 0 0 1 1 2 2 3 3 4 3 3 4 4 4 4 3 4
14 17 15 9 9 8 7 7 7 7 8 8 7 7 7 7 7 7 7 7 7 7 7 6 6 5 4 3 3 2 1 1 1 1 1 1 1 2 3 3 3 4 3 4 4 4 4 4 4
17 16 12 8 7 7 7 6 7 8 8 8 7 8 9 9 8 8 8 7 7 7 6 7 6 5 4 4 4 3 2 1 2 2 2 2 2 3 2 2 3 3 4 4 5 5 5 5 5
16 13 9 7 6 6 7 7 7 7 8 7 7 7 8 8 8 8 8 7 7 7 7 7 6 6 4 4 4 3 3 2 3 3 3 4 4 4 4 3 3 4 4 4 5 4 4 4 5
13 12 9 7 7 6 5 6 7 7 7 8 8 8 8 8 9 8 8 7 7 7 7 7 7 7 6 4 4 4 4 4 4 4 5 5 5 5 5 5 5 5 5 5 6 5 4 4 4
12 12 8 5 6 6 6 6 7 8 7 8 8 8 8 8 8 8 8 8 7 7 8 8 8 7 6 5 4 5 5 5 6 6 6 6 6 6 5 6 5 5 5 6 6 5 4 4 4
10 9 6 5 5 6 6 6 7 8 7 8 8 8 7 7 8 8 7 7 8 8 9 8 9 8 7 7 5 5 6 7 6 6 7 7 7 6 6 6 6 6 6 6 6 5 5 5 5
8 7 6 6 5 5 6 5 6 7 8 8 8 8 8 7 8 7 8 9 9 9 9 9 9 9 9 8 7 7 8 7 6 6 6 6 6 6 6 6 5 6 6 6 6 6 6 6 7
6 7 8 7 6 6 6 6 6 7 8 9 9 9 9 9 9 9 9 9 9 10 10 10 9 10 10 9 9 8 8 7 7 7 7 7 7 7 7 7 6 6 6 6 7 7 7 7 8
5 5 6 7 8 7 7 7 7 8 9 9 9 9 9 9 9 9 10 10 10 10 10 10 10 11 11 11 10 10 10 9 8 7 8 7 8 8 7 8 7 7 7 7 7 7 7 7 8
3 3 5 6 7 7 7 7 8 9 9 9 9 9 10 9 10 10 10 11 10 10 11 11 11 12 12 12 11 10 10 10 9 9 8 8 8 8 8 8 7 7 8 8 8 8 8 9 9
0 0 3 5 6 8 8 7 8 8 10 10 9 9 10 10 9 10 11 11 11 11 11 11 12 13 13 12 12 11 10 10 10 9 9 8 8 8 9 9 9 8 8 8 8 9 9 9 9
4 6 6 6 6 9 10 10 11 10 10 11 10 10 10 10 10 10 11 11 12 12 11 11 12 13 13 13 12 12 11 10 10 10 9 9 9 9 9 10 10 9 9 10 10 9 9 9 9
6 6 8 9 7 8 10 11 12 12 11 11 11 11 10 11 11 12 12 12 12 12 12 12 13 13 13 13 13 12 12 11 11 11 10 10 10 10 9 10 9 9 10 10 10 10 10 10 10
5 6 7 8 8 8 10 11 12 12 12 12 11 11 11 11 12 12 13 13 13 12 13 13 13 13 13 13 13 12 11 11 11 11 11 10 10 10 10 10 10 10 10 11 11 11 11 11 11
2 4 6 7 8 8 9 10 11 13 13 12 12 12 11 12 12 12 12 13 13 12 12 13 13 13 13 13 13 12 12 11 12 12 12 11 11 10 10 10 10 11 11 11 11 12 13 13 13
4 5 7 8 8 7 8 9 9 13 13 13 12 13 12 12 11 12 12 12 12 12 12 13 13 14 13 13 13 13 13 13 12 13 13 12 11 11 11 11 11 11 11 12 12 13 13 14 14
6 7 7 7 10 10 10 11 10 11 13 13 13 14 13 13 12 12 12 12 12 12 12 13 13 14 14 14 13 13 13 13 13 13 12 12 12 12 12 12 12 12 12 12 12 13 13 13 14
7 7 6 7 9 11 12 13 12 12 14 14 14 14 13 13 13 12 12 13 13 12 12 12 13 13 13 14 13 13 14 14 14 14 13 12 12 12 13 13 13 13 13 13 13 14 14 14 14
8 7 7 8 9 9 12 14 13 12 13 14 15 14 15 14 14 13 13 13 13 13 13 13 13 14 14 14 14 14 14 14 14 14 14 14 13 13 14 13 13 13 13 13 14 14 14 14 15
8 7 9 10 10 11 12 13 14 13 13 14 14 14 15 14 14 14 14 14 14 14 14 14 14 14 15 15 15 15 14 15 15 15 15 14 14 14 14 13 13 13 13 14 14 14 15 15 14
8 9 11 11 10 11 11 12 15 12 14 15 15 14 15 15 15 15 15 14 14 15 15 15 15 15 15 15 16 16 16 15 16 15 15 15 15 15 14 14 14 14 14 14 15 15 16 16 16
10 9 11 12 12 13 13 14 15 15 15 15 16 16 15 15 15 15 15 15 15 15 15 15 15 16 16 16 17 17 17 16 16 16 16 15 15 15 14 15 15 15 15 16 16 16 16 16 17
11 11 11 12 12 13 15 16 16 14 14 16 17 16 16 15 15 15 16 16 16 16 15 15 16 17 17 17 17 17 17 17 17 17 17 16 16 16 16 16 16 17 17 17 18 18 18 18 17
13 11 11 12 13 12 13 16 16 16 17 17 18 18 16 16 16 16 16 17 17 17 16 16 17 18 18 19 19 18 18 18 18 18 17 17 17 17 17 17 18 18 17 18 19 20 19 19 18
13 12 12 12 12 13 15 17 18 18 20 18 17 17 18 17 17 17 18 18 18 17 17 18 18 19 19 19 19 19 19 19 19 19 19 19 18 18 18 18 19 19 19 19 19 19 20 19 19
15 14 13 13 14 14 15 20 21 20 19 17 16 18 19 19 18 18 18 19 19 19 18 18 19 19 20 20 20 20 20 20 19 19 19 20 19 19 19 19 20 20 20 20 20 21 20 20 20
Wind_Direction
79 79 80 77 66 60 47 47 50 53 55 55 54 56 57 49 44 52 49 56 64 57 58 49 55 66 68 68 77 93 109 111 119 132 143 151 157 166 173 174 170 174 184 192 189 192 188 190 197
81 82 76 71 61 48 40 42 47 51 53 50 48 52 55 52 53 56 51 53 54 53 56 51 51 55 57 58 64 78 96 107 124 138 160 169 173 180 177 182 180 184 190 192 191 193 193 196 201
83 78 72 65 52 46 43 39 43 50 49 43 45 48 54 55 54 56 49 48 51 48 49 46 45 45 40 34 34 37 44 105 137 149 170 192 197 196 204 210 206 200 204 201 202 206 203 202 203
79 72 67 60 46 42 41 39 47 48 48 46 48 47 52 52 51 52 47 44 44 43 42 42 40 40 34 23 17 19 14 43 300 226 199 201 211 216 220 223 222 220 221 222 213 210 206 210 214
71 65 60 49 40 35 41 42 49 46 45 49 51 52 57 56 51 49 46 46 45 45 42 39 40 39 34 26 19 12 1 352 324 300 293 273 277 268 247 229 226 219 225 234 224 223 221 221 228
72 64 54 43 28 28 31 39 46 45 42 41 43 42 50 53 49 45 41 41 41 40 41 38 34 32 27 23 25 23 10 352 340 327 306 286 287 282 274 250 245 235 234 232 236 234 226 228 229
71 68 55 34 15 23 27 33 45 46 39 33 37 37 39 43 39 37 37 33 32 33 37 34 27 24 21 17 12 9 352 335 331 325 315 304 298 297 294 285 267 249 246 240 242 241 238 237 234
76 75 60 36 11 26 32 33 40 38 38 31 30 35 40 37 34 33 33 30 26 24 29 27 22 18 17 7 359 353 347 335 321 311 308 304 303 301 296 293 281 262 255 249 247 256 257 253 252
70 66 57 40 10 15 31 25 27 24 27 31 29 31 34 33 32 30 29 27 23 24 24 22 19 15 13 7 353 346 338 326 315 307 303 300 297 296 290 290 284 266 261 257 251 258 258 254 246
58 62 50 36 14 1 9 15 20 15 20 26 22 24 26 25 24 25 27 23 24 26 19 14 10 6 5 359 347 338 331 326 317 311 303 298 297 295 292 290 283 269 263 260 252 252 253 254 244
60 50 42 36 25 7 9 9 14 6 11 22 23 20 21 21 17 17 15 12 15 15 10 7 7 6 1 353 347 336 330 326 316 310 311 309 305 301 302 298 288 268 265 267 259 253 252 248 249
54 38 34 29 18 11 20 22 13 6 7 12 11 10 12 11 9 11 7 5 4 5 4 1 2 2 357 352 347 339 330 325 320 313 316 316 308 302 299 298 289 281 276 269 267 262 257 250 252
56 37 31 29 23 13 13 18 14 10 8 6 3 1 2 1 360 360 359 358 357 358 358 358 359 357 354 351 345 339 334 331 325 319 314 309 306 305 301 297 290 281 280 275 271 268 260 255 257
60 59 34 25 22 11 15 16 15 7 4 359 356 354 357 355 352 352 354 354 353 352 352 353 352 351 348 347 343 338 335 337 339 333 321 310 305 307 306 305 295 282 278 278 278 274 268 260 259
36 322 41 32 8 1 5 7 11 6 358 353 351 353 353 350 345 345 345 346 348 351 351 351 351 349 346 345 343 339 338 338 338 333 324 319 311 306 308 305 297 290 285 284 282 280 278 271 265
359 349 356 17 9 350 348 353 359 357 355 351 348 354 354 348 343 342 342 342 345 348 348 347 347 347 343 342 341 338 337 335 335 331 322 318 314 309 306 304 298 292 289 286 285 284 281 278 272
355 340 357 357 353 347 343 343 348 347 346 351 349 350 350 350 345 344 343 340 343 344 345 343 341 342 342 341 340 338 336 331 330 329 320 315 314 310 308 309 306 297 289 289 289 285 284 280 274
346 336 338 328 330 339 331 337 344 344 345 349 352 348 347 347 345 343 341 340 339 339 339 339 340 341 343 340 340 339 337 332 328 330 329 323 318 313 309 307 309 307 299 293 289 287 285 282 276
324 313 307 309 323 327 322 328 344 344 344 346 346 346 348 347 344 343 341 338 337 336 338 339 340 340 341 342 342 341 337 332 329 330 329 326 318 314 312 309 307 305 303 298 292 285 284 283 279
296 292 299 304 302 313 309 306 328 341 343 341 340 341 344 345 344 343 341 338 335 334 334 336 337 339 339 339 338 338 336 333 331 330 327 323 320 316 311 309 308 304 299 297 297 295 289 287 283
280 280 282 303 318 316 305 304 324 336 337 335 335 337 342 344 341 341 342 339 337 336 334 335 336 336 337 337 336 335 333 331 332 333 331 327 320 316 312 308 305 302 298 296 296 295 289 288 286
268 275 288 297 298 300 304 302 313 327 328 330 332 333 337 339 340 339 339 339 338 337 337 338 337 337 337 337 336 335 334 333 334 332 330 328 324 319 314 310 307 304 302 298 294 293 290 288 287
253 270 287 283 282 291 296 299 307 315 319 328 333 333 334 335 338 339 337 336 334 334 333 335 335 335 335 334 332 332 332 332 331 330 329 326 323 320 317 313 311 305 301 300 297 296 296 292 288
263 281 285 283 284 292 302 307 306 305 317 323 327 328 328 329 329 333 333 331 330 330 329 330 331 331 331 331 329 329 330 329 328 329 329 326 324 320 317 317 314 311 305 300 299 301 301 299 294
258 277 285 292 297 304 307 294 297 302 312 317 320 323 322 324 326 328 331 330 329 328 328 327 329 329 327 327 326 325 327 328 328 329 328 325 323 321 319 319 316 312 307 303 300 302 301 300 297
256 263 279 294 301 301 292 290 298 308 314 317 316 317 314 317 322 326 330 328 327 327 326 326 325 326 325 323 322 322 323 323 325 325 324 324 324 321 317 317 314 313 310 307 304 303 304 303 302
248 255 269 275 273 277 286 292 298 300 313 314 316 316 314 314 321 323 326 326 326 325 324 323 324 323 323 323 323 322 321 320 320 320 319 319 320 319 316 314 313 310 308 307 306 303 302 301 302
253 255 255 259 271 280 288 290 293 300 307 307 312 318 315 317 318 319 322 323 323 322 321 321 322 322 321 322 321 319 318 318 318 316 315 316 317 317 315 313 312 310 307 306 306 302 301 299 298
256 258 261 263 271 279 288 291 290 292 298 301 308 312 312 313 314 317 319 319 319 317 317 318 318 318 320 320 319 317 317 318 318 317 315 313 314 314 314 311 311 311 308 305 306 305 304 300 297
245 248 256 266 274 278 282 285 288 291 297 300 303 306 305 307 310 313 315 316 316 315 314 315 317 317 319 318 317 317 317 317 317 317 316 315 314 312 311 311 311 312 311 307 306 306 304 300 298